Probability
11 12 14 16 14 10 6 4 3 2 1 2 2 2 1 0 0 0 0 0 0 0 0 0 0 0 0 0 0 0 0 0 0 0 0 0 1 2 3 3 3 3 4
10 10 12 12 11 9 7 5 3 1 1 1 1 1 0 0 0 0 0 0 0 0 0 0 0 0 0 0 0 0 0 0 0 0 0 0 0 1 2 2 2 2 3
8 8 7 7 6 5 4 3 1 0 0 0 0 0 0 0 0 0 0 0 0 0 0 0 0 0 0 0 0 0 0 0 0 0 0 0 0 0 1 1 1 2 3
7 5 4 4 4 2 1 1 0 0 0 0 0 0 0 0 0 0 0 0 0 0 0 0 0 0 0 0 0 0 0 0 0 0 0 0 0 0 0 0 1 1 2
5 4 3 4 3 1 0 0 0 0 0 0 0 0 0 0 0 0 0 0 0 0 0 0 0 0 0 0 0 0 0 0 0 0 0 0 0 0 0 0 0 0 1
4 3 2 2 2 1 0 0 0 0 0 0 0 0 0 0 0 0 0 0 0 0 0 0 0 0 0 0 0 0 0 0 0 0 0 0 0 0 0 0 0 0 0
2 2 1 0 0 0 0 0 0 0 0 0 0 0 0 0 0 0 0 0 0 0 0 0 0 0 0 0 0 0 0 0 0 0 0 0 0 0 0 0 0 0 0
1 1 0 0 0 0 0 0 0 0 0 0 0 0 0 0 0 0 0 0 0 0 0 0 0 0 0 0 0 0 0 0 0 0 0 0 0 0 0 0 0 0 0
0 0 0 0 0 0 0 0 0 0 0 0 0 0 0 0 0 0 0 0 0 0 0 0 0 0 0 0 0 0 0 0 0 0 0 0 0 0 0 0 0 0 0
0 0 0 0 0 0 0 0 0 0 0 0 0 0 0 0 0 0 0 0 0 0 0 0 0 0 0 0 0 0 0 0 0 0 0 0 0 0 0 0 0 0 0
0 0 0 0 0 0 0 0 0 0 0 0 0 0 0 0 0 0 0 0 0 0 0 0 0 0 0 0 0 0 0 0 0 0 0 0 0 0 0 0 0 0 0
0 0 0 0 0 0 0 0 0 0 0 0 0 0 0 0 0 0 0 0 0 0 0 0 0 0 0 0 0 0 0 0 0 0 0 0 0 0 0 0 0 0 0
0 0 0 0 0 0 0 0 0 0 0 0 0 0 0 0 0 0 0 0 0 0 0 0 0 0 0 0 0 0 0 0 0 0 0 0 0 0 0 0 0 0 0
0 0 0 0 0 0 0 0 0 0 0 0 0 0 0 0 0 0 0 0 0 0 0 0 0 0 0 0 0 0 0 0 0 0 0 0 0 0 0 0 0 0 0
0 0 0 0 0 0 0 0 0 0 0 0 0 0 0 0 0 0 0 0 0 0 0 0 0 0 0 0 0 0 0 0 0 0 0 0 0 0 0 0 0 0 0
0 0 0 0 0 0 0 0 0 0 0 0 0 0 0 0 0 0 0 0 0 0 0 0 0 0 0 0 0 0 0 0 0 0 0 0 0 0 0 0 0 0 0
0 0 0 0 0 0 0 0 0 0 0 0 0 0 0 0 0 0 0 0 0 0 0 0 0 0 0 0 0 0 0 0 0 0 0 0 0 0 0 0 0 0 0
0 0 0 0 0 0 0 0 0 0 0 0 0 0 0 0 0 0 0 0 0 0 0 0 0 0 0 0 0 0 0 0 0 0 0 0 0 0 0 0 0 0 0
0 0 0 0 0 0 0 0 0 0 0 0 0 0 0 0 0 0 0 0 0 0 0 0 0 0 0 0 0 0 0 0 0 0 0 0 0 0 0 0 0 0 0
0 0 0 0 0 0 0 0 0 0 0 0 0 0 0 0 0 0 0 0 0 0 0 0 0 0 0 0 0 0 0 0 0 0 0 0 0 0 0 0 0 0 0
0 0 0 0 0 0 0 0 0 0 0 0 0 0 0 0 0 0 0 0 0 0 0 0 0 0 0 0 0 0 0 0 0 0 0 0 0 0 0 0 0 0 0
0 0 0 0 0 0 0 0 0 0 1 0 0 0 0 0 0 0 0 0 0 0 0 0 0 0 0 0 0 0 0 0 0 0 0 0 0 0 0 0 0 0 0
0 0 0 0 0 0 0 0 0 0 0 0 0 0 0 0 0 0 0 0 0 0 0 0 0 0 0 0 0 0 0 0 0 0 0 0 0 0 0 0 0 0 0
0 0 0 0 0 0 0 0 0 0 0 0 0 0 0 0 0 0 0 0 0 0 0 0 0 0 0 0 0 0 0 0 0 0 0 0 0 0 0 0 0 0 0
0 0 0 0 0 0 0 0 0 0 0 0 0 0 0 0 0 0 0 0 0 0 0 0 0 0 0 0 0 0 0 0 0 0 0 0 0 0 0 0 0 0 0
0 0 0 0 0 0 0 0 0 0 0 0 0 0 0 0 0 0 0 0 0 0 0 0 0 0 0 0 0 0 0 0 0 0 0 0 0 0 0 0 0 0 0
Wind_Speed
4 5 7 8 7 6 6 5 5 4 3 3 2 2 1 1 1 1 2 3 3 3 3 2 2 2 1 1 1 1 1 1 0 1 2 3 3 3 4 4 4 5 7
5 5 6 6 6 6 6 6 5 4 3 2 2 2 2 1 1 1 2 1 2 2 3 3 2 2 1 2 2 2 1 1 1 1 1 3 4 3 3 2 3 4 4
9 7 6 6 6 6 7 7 5 5 4 4 3 3 3 3 3 2 1 2 1 1 1 3 2 2 2 1 1 1 2 1 1 1 2 1 2 3 3 2 2 2 3
8 7 7 7 6 6 6 6 6 5 4 4 5 5 3 2 0 0 1 2 2 1 0 1 2 1 1 1 0 1 1 1 1 1 0 2 3 2 3 4 3 3 2
8 8 9 8 7 7 7 6 6 5 4 5 5 5 3 2 1 1 3 3 3 3 2 2 2 1 1 1 0 1 0 1 1 1 1 1 1 2 2 3 4 4 3
8 8 7 6 6 6 7 6 6 5 5 5 5 5 4 3 3 3 3 2 2 3 3 3 2 1 1 1 1 0 1 1 1 1 1 1 1 1 2 3 3 3 4
9 8 8 8 8 8 7 6 7 5 5 5 5 4 4 4 3 2 1 1 1 1 2 2 2 1 1 1 1 1 1 1 1 2 2 2 3 2 2 2 3 3 3
8 8 9 9 9 9 8 7 7 6 5 5 4 4 4 3 2 2 2 1 1 1 1 1 1 1 1 2 1 1 2 2 2 3 3 2 3 2 3 3 2 2 3
10 10 9 9 9 10 9 9 8 6 5 5 5 4 4 3 3 2 1 1 1 1 0 1 1 2 2 2 1 1 2 2 3 3 3 3 3 2 3 3 3 3 3
11 10 9 9 9 9 8 8 8 7 6 6 5 4 4 4 3 2 1 1 1 0 1 2 2 2 2 2 1 2 3 3 3 3 3 3 3 3 3 2 2 3 4
12 10 9 9 8 8 8 7 7 6 5 5 4 4 3 3 2 2 2 2 1 1 1 2 2 2 3 2 2 3 3 3 3 3 3 4 3 3 3 2 2 3 3
11 10 10 8 8 8 7 7 7 6 6 5 5 4 3 3 2 2 2 2 2 2 2 2 2 3 3 3 3 4 3 3 4 4 4 4 4 4 3 3 3 3 4
10 9 9 8 8 8 7 7 7 6 6 5 5 4 4 3 3 3 3 2 3 3 3 3 3 4 4 4 4 3 4 4 4 4 4 5 4 5 4 4 4 4 4
12 10 9 8 8 8 8 7 6 6 6 5 5 5 5 5 4 4 3 3 3 3 3 3 4 4 4 4 4 4 4 4 5 5 5 5 5 6 6 5 5 4 4
11 12 11 9 8 8 7 7 6 6 6 5 5 5 5 4 4 3 3 3 3 4 4 3 4 4 4 4 4 4 4 4 5 5 5 6 8 9 7 6 5 5 4
13 12 12 11 10 9 8 7 6 6 6 6 5 5 4 4 4 4 3 3 3 3 3 4 4 5 4 6 7 6 4 5 5 6 6 6 8 9 9 10 9 7 6
13 13 12 12 11 10 9 9 7 6 6 5 5 5 5 4 4 3 3 3 4 3 3 4 4 5 7 10 10 9 6 5 6 6 6 6 7 7 5 7 9 8 10
14 13 11 10 9 8 7 7 6 6 5 5 4 4 4 4 3 3 3 4 3 3 4 5 5 6 8 10 10 10 6 5 6 6 6 7 7 7 6 6 6 6 6
13 12 11 10 9 9 8 7 6 5 5 4 4 4 4 4 3 3 4 4 3 4 4 5 6 6 8 11 11 8 4 4 6 6 6 6 6 9 9 5 6 6 7
10 10 9 8 9 8 8 8 6 5 5 5 5 4 4 4 4 5 5 4 4 5 5 5 6 6 7 10 11 8 3 4 5 5 6 8 8 9 8 5 5 7 7
10 11 10 9 9 9 8 7 6 7 6 5 4 4 4 4 5 4 4 4 4 4 5 6 6 6 7 8 10 8 4 5 5 5 5 5 9 10 9 7 6 9 8
9 10 9 8 7 8 9 8 7 7 5 4 4 3 4 3 3 4 4 4 4 4 5 5 5 5 5 6 7 9 9 7 5 6 5 6 9 10 11 8 10 13 9
10 9 9 8 6 7 8 9 7 5 5 4 4 3 4 4 3 4 5 4 4 3 4 4 4 5 4 4 7 7 8 8 5 5 8 9 11 11 9 11 13 10 5
9 8 9 8 7 7 7 8 6 6 5 4 4 4 3 4 4 3 4 4 4 4 4 4 5 5 4 4 4 3 3 5 4 4 7 10 11 9 10 9 7 5 6
6 8 9 9 9 7 7 6 6 6 5 5 4 4 4 4 4 4 4 5 6 6 6 5 5 4 5 7 8 5 4 3 3 3 3 4 4 4 4 4 5 5 4
7 7 7 7 7 7 7 6 6 7 6 4 4 4 3 4 4 4 5 7 8 10 11 10 8 7 9 10 9 9 8 7 5 2 3 5 5 6 6 5 5 5 5
Wind_Direction
169 152 146 138 133 131 124 117 108 105 97 86 90 91 86 72 62 89 110 121 122 117 114 106 88 74 70 33 6 13 351 311 284 356 318 304 272 246 240 232 227 225 220
158 155 146 142 142 137 128 120 118 109 101 105 119 124 116 97 95 56 59 81 114 123 136 133 127 104 78 38 36 51 42 336 42 110 34 334 332 319 275 253 231 233 226
166 166 153 154 146 144 142 136 131 120 111 105 85 68 56 46 37 24 5 337 13 93 140 155 145 126 114 91 47 80 95 357 337 91 139 152 264 305 315 308 279 257 236
171 164 161 161 158 155 144 135 131 125 117 108 98 99 101 94 63 314 337 338 351 351 348 150 146 132 119 107 24 101 111 117 324 327 280 193 190 215 305 315 314 310 271
175 169 171 169 162 153 141 138 133 128 120 112 113 109 105 117 71 36 28 15 8 14 37 76 97 101 104 114 53 50 70 156 187 228 272 292 258 198 204 288 313 320 300
177 174 171 158 153 148 141 138 133 131 127 120 119 120 118 105 78 57 44 25 14 19 33 59 60 62 48 336 290 268 265 248 235 230 216 204 220 230 213 248 278 289 289
172 169 168 162 157 155 152 147 140 140 141 132 131 131 128 119 120 123 96 65 21 8 6 41 42 21 332 316 321 303 287 261 256 250 243 225 219 210 201 219 259 274 287
176 173 172 166 162 162 159 155 153 155 156 146 141 135 131 132 146 153 153 150 179 217 219 68 26 343 326 328 333 300 281 273 272 271 256 243 245 222 206 202 213 274 292
179 177 174 169 164 165 168 166 162 163 165 156 144 141 145 149 160 167 159 178 212 215 188 326 323 307 303 302 309 286 283 285 270 268 264 252 252 244 230 213 196 203 253
180 178 176 170 169 169 170 166 164 166 169 163 162 158 163 168 168 157 174 207 236 268 315 314 303 294 289 288 289 283 281 282 276 263 268 268 260 263 255 237 223 204 210
181 178 176 172 167 162 162 165 166 163 166 166 161 155 166 169 164 165 193 203 218 245 266 274 281 283 284 282 272 270 276 277 281 281 272 270 267 265 268 259 246 233 210
177 171 166 162 159 160 162 164 167 166 171 167 162 165 167 163 166 189 208 214 233 249 251 259 268 272 269 265 261 267 275 268 271 274 272 271 273 269 265 258 253 247 229
163 160 160 162 164 164 163 163 162 164 164 160 158 163 172 178 193 211 222 228 239 254 263 259 263 264 262 261 255 247 257 258 260 262 260 264 265 265 263 259 255 252 253
163 161 164 166 166 164 161 159 162 163 161 158 162 176 192 198 207 217 225 235 240 245 255 257 257 257 261 255 251 253 257 260 262 261 257 258 253 251 255 258 252 250 255
165 167 168 169 167 163 163 162 165 167 163 161 174 196 204 205 209 217 229 238 243 244 248 256 264 265 260 245 244 251 255 254 264 268 264 263 263 259 253 252 243 238 239
172 173 172 169 171 170 170 169 172 176 168 172 192 202 200 203 210 221 229 236 246 253 256 261 263 268 265 255 249 244 246 251 256 266 271 273 271 271 269 268 259 232 222
174 176 178 176 175 175 170 174 180 175 173 185 199 201 199 205 216 219 218 236 245 245 258 264 263 264 267 265 261 255 239 244 252 257 264 274 276 278 270 274 277 264 249
176 179 177 175 174 172 169 170 166 167 175 189 202 203 196 205 216 217 236 247 245 246 252 257 262 264 269 270 267 261 244 246 255 255 255 258 269 273 265 263 269 265 262
177 177 174 170 167 166 165 156 160 166 172 188 199 199 193 201 213 230 246 246 242 253 253 257 261 263 272 275 271 259 237 249 261 264 264 260 261 270 271 259 261 268 272
166 163 160 155 160 169 158 153 166 171 189 199 200 197 193 199 218 235 244 241 238 248 259 266 263 259 266 273 270 256 221 247 263 270 269 266 263 271 270 247 246 258 263
161 156 155 162 172 167 155 161 173 192 203 195 187 191 199 212 225 235 239 244 249 260 268 273 276 272 267 271 270 251 213 231 253 263 267 266 271 272 272 257 240 247 253
153 155 158 169 172 164 160 170 192 202 189 177 183 201 217 232 233 236 252 253 252 265 274 277 286 282 275 265 265 253 235 232 237 254 261 264 273 273 275 268 254 255 256
159 161 163 167 173 173 167 180 200 186 170 173 197 218 232 245 244 239 250 259 256 251 262 262 269 279 279 275 273 265 259 253 243 253 264 273 280 283 277 265 261 258 241
163 159 156 163 179 186 184 190 187 172 168 187 212 225 237 258 263 256 244 242 248 248 251 251 257 266 274 269 267 268 273 274 270 276 285 287 283 275 266 270 269 245 227
165 162 166 176 187 187 192 192 180 167 178 200 218 230 237 249 260 260 248 240 237 227 228 240 237 243 263 259 242 238 248 248 258 286 290 287 290 288 279 272 264 253 236
160 163 172 179 185 184 192 193 182 175 181 205 225 230 239 250 255 265 282 268 253 258 251 248 243 242 244 261 261 254 258 262 256 250 268 277 275 272 272 272 272 261 245